Weather in Kourak

Russia / Novosibirsk Oblast     54°49′43″N   84°40′44″E
temp.,
°C
wind,
m/s
gust,
m/s
humid.,
%
clouds,
%
prec.,
mm/h
press.,
hPa
HPBL,
m
28 february, sun
sun2801:00−27sw379788 0.0 1040171
04:00−29ssw359766 0.0 103996
07:00−29ssw359661 0.0 104092
10:00−24s379468 0.0 1039221
13:00−18ssw388674 0.0 1036458
16:00−14s488092 0.0 1033630
19:00−15s389396 0.1 1030288
22:00−13sse3994100 0.4 1027373
1 march, mon
mon101:00−12sse3895100 0.8 1024277
04:00−11sse3993100 0.2 1020332
07:00−9s31094100 0.7 1017563
10:00−7s41093100 1.2 1014726
13:00−5ssw51091100 1.9 1011773
16:00−3ssw61293100 1.5 1009917
19:00−2ssw81693100 2.4 1008899
22:00−2sw81593100 1.5 1007895
2 march, tue
tue201:00−2wsw51195100 3.6 1008659
04:00−7wnw3697100 1.1 1010303
07:00−12wnw239798 1.7 101371
10:00−12wnw139694 0.2 1015175
13:00−8w369096 0.4 1017559
16:00−9wsw4691100 0.3 1018597
19:00−11w1296100 0.4 101832
22:00−14ssw119790 0.1 101820
3 march, wed
wed301:00−15sse119692 0.2 101720
04:00−14s1196100 0.1 101520
07:00−14e0097100 0.3 101620
10:00−12ene1195100 0.2 1015108
13:00−8ne1192100 0.4 1016275
16:00−7nnw1194100 0.4 1017263
19:00−10wsw3794100 1.0 1019358
22:00−13sw259587 0.1 1022146
4 march, thu
thu401:00−15sw379586 0.1 1024189
04:00−18ssw359695 0.0 1025123
07:00−19s379697 0.0 1027184
10:00−16s4109398 0.0 1026291
13:00−10s498998 0.0 1025524
16:00−7s51089100 0.0 1022586
19:00−9s41190100 0.0 1021456
22:00−9s51383100 0.0 1019398